Location: Homewood
(41.1836°S, 175.9581°E)
Time: 03:23:37
(UTC+00:00)

Spot 4 Rocket - Pass Details

Date: 18 April 2024
Orbit: 772 x 777 km, 98.8° (Epoch: 22 May)

Event Time Altitude Azimuth Distance (km) Brightness Sun altitude
Rises 17:12:45 0° 13° (NNE) 3,245 7.4 -19.1°
Reaches altitude 10° 17:15:03 10° 12° (NNE) 2,325 6.6 -18.7°
Maximum altitude 17:20:11 81° 284° (WNW) 798 3.9 -17.7°
Drops below altitude 10° 17:25:23 10° 196° (SSW) 2,353 6.4 -16.7°
Sets 17:27:44 0° 194° (SSW) 3,287 7.1 -16.3°
